Weather in Ureki

Georgia     41°59′53″N   41°45′47″E
temp.,
°C
wind,
m/s
gust,
m/s
humid.,
%
clouds,
%
prec.,
mm/h
press.,
hPa
HPBL,
m
6 march, sat
sat601:00+8ene34590 0.0 1024119
04:00+7ene34550 0.0 102599
07:00+6ene57550 0.0 1023135
10:00+9ene35510 0.0 1022156
13:00+14ne225312 0.0 1020131
16:00+15nnw115255 0.0 1019223
19:00+12ssw5650100 0.0 101995
22:00+11sw6963100 0.0 1020203
7 march, sun
sun701:00+10wsw4675100 0.1 1021161
04:00+9sw5688100 2.4 1021492
07:00+9wsw7991100 5.4 1022745
10:00+8wnw7981100 10.6 1022839
13:00+6sw5681100 2.0 1022719
16:00+6ssw6683100 3.1 1022717
19:00+6wsw4579100 0.4 1023468
22:00+5nw2377100 0.4 1024479
8 march, mon
mon801:00+5nne2368100 0.1 1023593
04:00+5se2273100 0.1 1021240
07:00+4e1276100 0.1 1020538
10:00+4nnw2384100 0.2 1019425
13:00+4ssw1192100 0.2 1018234
16:00+5w227897 0.3 1017463
19:00+5wnw227432 0.0 1018292
22:00+4se107541 0.0 1020327
9 march, tue
tue901:00+4e22810 0.0 102194
04:00+3e22834 0.0 1021107
07:00+3ene238333 0.0 1021103
10:00+5ene337417 0.0 1021212
13:00+8nw22610 0.0 1020534
16:00+8wnw345714 0.0 1020364
19:00+7wnw226115 0.0 1021238
22:00+6nne126517 0.0 1023296
10 march, wed
wed1001:00+5ene227383 0.0 1023135
04:00+5ene357291 0.0 1023198
07:00+4ene3473100 0.0 1022143
10:00+6ene456695 0.0 1021166
13:00+10ene3460100 0.0 1019470
16:00+10s3363100 0.0 1018549
19:00+8se3675100 0.0 1017320
22:00+7ese5875100 0.3 1017505